Wind_Speed
32 32 33 34 34 34 34 34 35 36 36 37 38 37 38 40 39 39 43 43 43 42 40 42 43 41 41 41 41 40 40 40 41 42 42 43 45 46 45 44 44 44 45 45 46 47 49 50 51 52 52 51 52 54 55 56 56 57 58 60 62 65 67 68 69 69 69 69 69 68 69 70 73 75 77 80 82 83 84 85 84 83 82 81 80 79
34 35 35 35 35 35 35 35 36 37 37 38 39 39 39 41 41 41 43 45 45 45 43 44 45 43 42 42 42 41 41 42 43 44 44 45 46 44 42 41 42 43 45 46 48 50 51 52 53 54 53 52 54 56 56 56 57 59 60 62 63 64 66 67 68 68 69 69 68 69 71 74 76 79 80 81 82 83 84 86 86 84 84 83 82 80
36 37 37 37 37 37 36 37 38 38 38 39 40 41 40 42 43 42 43 46 47 47 46 46 47 45 44 44 44 44 44 44 45 46 46 45 44 42 40 40 42 45 47 49 51 52 53 54 55 55 54 54 55 57 57 58 59 60 62 63 63 64 66 67 68 68 68 68 69 72 75 78 79 80 81 82 83 84 85 86 85 84 83 82 81 80
37 39 39 37 38 38 38 39 40 40 40 40 42 43 42 43 45 45 45 47 48 49 49 48 48 48 46 45 45 46 46 46 46 47 46 44 43 43 42 42 45 48 50 52 54 54 54 55 56 55 55 55 57 58 59 59 61 62 62 62 63 64 66 67 68 68 68 69 72 76 79 82 83 82 81 81 82 84 86 86 85 84 84 84 81 79
37 40 41 39 39 40 40 41 42 43 41 41 42 44 44 44 46 47 48 49 50 51 51 51 51 50 48 45 44 46 46 45 45 45 45 44 45 45 44 45 48 50 52 54 54 54 55 56 57 57 56 56 58 59 60 61 62 62 62 61 63 65 66 67 68 68 69 72 75 78 81 83 83 82 81 80 81 84 86 86 85 84 85 86 83 80
37 40 41 41 41 40 41 42 43 45 44 42 43 44 46 46 46 47 49 51 52 53 52 51 53 55 51 46 44 45 45 45 45 45 46 47 48 48 47 48 50 51 53 54 54 55 56 58 59 58 57 58 60 61 61 61 61 61 61 61 63 65 67 68 69 70 72 75 79 81 83 82 81 80 80 81 84 87 87 86 85 84 84 84 83 81
39 41 42 42 41 41 42 44 45 46 47 45 44 45 46 46 48 48 49 51 53 55 54 51 55 59 56 50 46 45 45 45 45 46 48 50 51 50 50 50 51 53 54 54 56 57 59 61 61 59 58 60 62 62 61 60 60 60 60 62 64 66 67 69 70 73 75 78 81 83 84 83 81 80 80 83 88 90 89 87 86 86 84 82 82 82
41 43 42 43 42 42 44 46 47 47 48 47 47 48 48 48 49 49 50 52 53 57 54 51 56 62 60 55 48 45 45 45 45 47 49 51 51 51 52 52 53 55 55 56 58 60 62 63 62 60 60 61 62 61 60 59 59 59 61 63 65 66 68 70 72 75 78 81 82 83 83 82 82 83 84 87 89 90 89 87 86 85 83 82 82 85
43 44 43 43 43 44 46 47 48 48 49 49 49 50 50 51 51 51 53 53 54 58 55 51 57 62 62 57 50 46 47 47 46 48 50 51 52 53 53 54 56 57 57 58 60 62 64 64 63 61 61 62 62 60 59 59 59 60 62 64 66 68 70 73 75 78 81 83 83 82 81 81 83 86 88 89 91 90 87 86 85 84 83 84 85 88
45 45 44 44 44 45 47 48 49 50 51 50 50 51 52 53 53 53 55 55 56 59 56 54 58 63 63 56 51 50 51 50 48 50 52 53 54 55 56 57 57 58 58 60 62 63 64 64 63 62 62 62 61 60 59 59 59 62 63 65 67 70 72 76 79 81 82 83 82 81 81 82 84 87 89 90 91 89 86 84 83 83 85 87 88 90
46 46 46 45 45 46 48 49 50 52 52 52 52 52 53 55 55 56 57 57 59 59 57 57 60 64 64 56 54 56 54 52 51 52 55 56 56 57 57 58 58 58 60 61 63 64 65 64 63 63 62 62 61 59 59 59 61 63 65 66 69 72 75 78 81 82 82 82 80 81 82 84 86 87 89 90 90 88 85 83 83 84 87 90 92 93
47 47 47 46 46 47 49 50 52 53 53 53 53 54 56 57 57 58 59 59 61 61 59 61 62 64 64 60 60 61 57 54 53 54 57 58 58 57 58 58 58 59 61 62 63 64 64 64 63 62 62 61 60 59 59 60 62 64 66 68 71 75 78 80 82 82 81 80 80 81 84 86 87 88 89 89 88 86 85 84 84 86 88 91 94 95
47 48 48 47 47 48 50 52 53 54 54 54 54 56 58 59 60 61 61 62 63 63 63 64 65 64 64 63 63 63 59 56 55 56 58 59 58 57 58 59 59 60 62 63 64 64 63 62 62 61 61 60 59 59 60 62 64 66 68 71 73 77 79 81 82 82 80 79 80 82 85 87 88 89 89 88 86 85 85 85 86 87 89 92 96 97
49 49 48 47 48 49 51 53 54 54 54 54 55 57 58 59 61 62 63 65 66 65 65 67 68 66 64 64 63 62 61 57 55 56 58 58 57 59 60 60 60 61 63 63 63 62 61 61 60 61 60 59 59 60 61 63 65 68 70 73 75 78 80 81 82 81 79 79 81 84 86 87 88 88 88 87 86 85 85 85 86 88 91 95 98 97
52 52 49 48 49 50 52 54 54 55 55 56 56 58 59 59 62 64 66 67 68 67 64 65 68 67 65 66 64 61 59 56 55 57 58 57 58 61 61 61 61 62 63 63 62 61 60 60 59 59 59 59 60 61 62 64 67 70 72 75 77 79 80 81 81 80 78 79 82 85 86 87 88 88 87 86 85 85 85 85 87 89 93 98 99 96
54 55 52 51 52 52 54 55 56 57 58 58 59 60 60 61 63 66 67 68 70 70 64 62 66 66 66 67 64 60 57 56 57 58 57 58 60 62 61 61 62 63 63 62 61 60 59 59 58 58 58 59 61 62 63 66 69 72 74 77 79 80 81 81 81 79 78 80 82 85 86 87 87 87 86 85 85 85 86 86 88 91 95 100 100 93
54 56 55 54 54 54 56 57 58 58 59 60 61 61 62 63 65 66 68 69 71 73 67 63 67 66 65 63 61 61 59 57 59 58 57 59 62 62 62 63 64 64 62 60 60 59 58 57 57 58 59 61 62 63 65 68 71 74 76 78 80 81 81 81 80 78 78 80 83 84 85 86 86 87 86 85 85 86 86 87 90 93 97 100 98 87
55 56 56 56 56 57 57 59 60 60 60 62 62 62 63 65 66 67 69 70 72 76 72 68 70 67 64 62 59 61 62 60 60 59 59 62 64 63 63 65 65 64 61 60 59 59 57 56 57 58 60 62 63 65 67 70 73 76 78 80 81 81 81 80 78 78 79 81 83 83 83 85 86 87 87 86 86 86 87 89 92 95 98 100 94 80
54 56 57 57 58 59 60 61 61 61 63 64 63 64 65 66 67 67 70 71 72 77 76 74 72 64 60 63 62 62 63 63 62 60 61 64 64 64 65 66 66 63 60 59 59 57 56 56 57 59 61 63 65 67 70 73 75 78 80 82 82 82 81 79 78 78 80 82 83 82 83 84 86 87 88 87 87 87 87 90 94 97 100 99 89 72
56 57 59 60 60 62 62 62 62 63 64 64 63 65 66 67 68 68 70 71 72 77 79 79 76 62 57 64 63 62 64 65 63 62 63 65 64 65 66 67 66 62 59 58 57 55 55 56 58 60 63 65 67 70 72 75 77 79 81 82 82 82 80 78 77 78 80 81 82 82 83 84 86 88 88 88 88 87 88 90 95 99 100 97 83 64
58 59 60 62 63 64 63 62 63 64 64 64 64 66 67 67 68 69 71 72 72 76 79 83 81 66 59 63 62 63 67 65 62 62 63 64 65 66 67 67 64 59 57 56 54 54 55 57 60 62 64 67 69 72 74 76 78 80 82 82 82 81 78 76 77 78 80 81 81 81 83 84 86 87 88 89 88 87 88 91 96 99 99 93 76 59
61 62 63 64 65 65 64 64 65 65 65 65 65 66 66 67 68 70 74 74 74 76 78 83 83 70 62 65 64 66 68 63 61 63 64 65 66 66 67 65 61 57 55 54 52 53 56 58 61 63 65 68 71 73 76 77 80 81 82 82 81 79 77 76 77 78 79 80 80 82 83 85 86 87 88 88 87 87 89 93 98 99 96 88 70 55
63 64 65 66 66 66 66 66 67 67 66 66 67 67 66 67 68 70 74 75 76 79 79 83 84 72 64 66 68 69 69 63 61 63 64 65 66 66 65 61 58 55 53 52 52 54 57 59 62 64 66 70 72 75 77 78 80 81 81 81 79 77 76 76 77 78 79 79 80 82 84 85 86 87 87 87 86 87 90 94 98 98 93 81 63 52
64 66 67 68 68 68 68 68 68 67 66 67 68 67 67 68 69 71 75 77 78 81 81 83 82 72 65 67 70 71 68 62 62 64 64 66 65 64 61 57 54 52 50 51 53 55 58 61 63 65 68 71 73 76 78 79 80 81 81 79 77 75 75 76 77 77 78 79 80 82 84 85 86 86 86 86 86 88 91 95 97 95 88 74 58 52
66 67 68 69 70 69 69 69 69 67 68 69 69 67 67 69 71 74 77 78 81 80 77 79 79 71 65 68 70 69 64 60 62 64 65 66 63 59 56 53 51 50 50 52 54 57 60 62 64 67 69 71 74 76 78 79 80 80 79 77 75 75 75 76 77 77 78 78 80 82 84 85 85 85 85 85 86 89 92 95 95 92 82 66 54 51
67 68 68 70 70 70 70 70 69 69 70 72 70 68 69 70 73 76 77 78 79 73 68 73 75 67 64 67 68 64 61 60 62 65 65 63 58 54 51 50 49 49 50 53 56 59 61 63 65 68 70 72 74 76 78 79 79 78 77 76 75 74 75 75 76 76 77 78 80 81 83 84 85 85 85 86 88 90 92 93 93 87 75 59 51 50
70 70 69 70 71 72 71 70 70 70 72 72 71 70 71 72 75 77 76 75 71 64 65 69 68 64 63 65 64 60 59 60 63 64 63 57 51 49 48 48 48 50 52 55 58 60 62 64 66 68 70 72 74 76 77 78 78 76 75 74 74 74 74 74 75 76 77 78 79 82 83 84 85 84 84 87 89 91 92 92 90 82 67 54 50 48
71 71 70 71 73 73 72 71 72 72 72 73 72 72 73 74 75 74 72 68 60 60 68 66 60 64 65 62 61 59 57 60 63 61 56 50 47 47 47 48 49 51 54 57 59 61 63 65 67 68 70 73 75 76 77 77 76 75 74 73 73 73 74 74 75 75 76 78 79 82 84 84 84 84 85 87 89 91 92 90 86 78 62 50 48 47
73 73 70 71 74 74 74 74 74 73 74 73 71 71 73 73 71 67 66 62 55 60 69 63 58 66 66 60 58 58 57 60 60 55 48 45 46 47 48 49 51 53 56 58 60 62 64 65 67 68 71 73 75 76 76 75 75 73 73 73 72 73 73 74 75 75 76 77 79 82 83 83 83 83 85 87 89 91 92 89 83 73 58 48 46 46
73 73 72 73 76 76 75 75 73 72 73 70 67 68 69 66 63 62 61 58 56 62 66 62 63 67 61 54 55 57 58 58 53 47 44 44 47 48 49 51 54 55 57 59 61 63 64 65 67 68 71 73 75 76 75 75 73 72 72 72 71 72 73 74 75 76 76 78 80 82 83 82 83 84 85 88 90 92 92 88 80 68 55 48 46 45
74 74 74 75 77 74 69 68 68 67 67 67 64 64 61 58 58 60 57 55 57 62 63 63 68 66 56 51 55 56 54 51 46 43 44 47 49 50 51 53 55 56 58 60 62 63 64 66 67 69 72 74 75 75 75 73 72 72 71 71 71 72 73 74 74 76 77 79 80 81 82 82 82 84 86 88 91 93 92 85 76 64 53 47 46 44
76 75 70 69 72 67 60 62 64 64 67 69 65 61 57 56 59 57 55 55 58 61 62 63 66 63 54 52 53 50 46 43 42 43 47 50 51 52 52 54 56 58 59 61 63 64 65 66 68 70 72 74 75 75 73 73 72 72 71 70 71 71 72 73 74 76 78 79 80 81 81 82 83 84 87 90 92 93 91 83 70 59 51 47 46 45
73 70 65 65 68 64 59 62 65 66 70 68 60 56 55 56 57 56 56 58 59 60 62 62 61 58 53 50 49 45 42 40 41 45 48 51 52 52 52 55 57 59 60 62 63 64 65 67 69 71 73 74 75 73 73 72 72 71 70 70 70 71 72 73 74 76 78 79 80 80 81 82 84 86 88 91 93 93 90 80 64 54 50 48 47 45
67 66 65 65 66 65 63 64 65 67 66 60 53 53 54 55 56 57 59 60 59 59 59 59 58 54 50 48 46 43 40 39 42 46 49 51 52 52 54 57 59 60 60 62 63 64 66 67 70 72 73 74 73 73 72 72 72 71 70 70 70 71 72 73 75 77 78 79 80 80 81 83 86 88 90 92 94 93 88 76 59 50 49 48 46 44
64 64 65 65 65 66 63 62 65 66 60 56 56 56 55 57 59 59 60 61 58 57 58 58 57 51 47 46 44 40 39 41 45 48 51 52 53 55 58 59 59 60 61 63 63 64 66 68 70 72 73 73 72 72 72 71 71 70 69 69 70 71 72 74 75 77 78 79 80 80 82 84 87 90 91 93 94 91 86 72 54 48 49 48 45 43
61 62 63 63 63 64 62 62 65 65 60 58 60 59 56 59 60 58 61 62 58 55 57 58 56 51 48 45 42 40 42 45 48 51 53 55 56 58 60 60 60 61 62 62 63 64 67 69 71 73 73 72 71 71 70 70 69 69 69 69 70 72 73 74 75 76 77 79 80 81 83 86 89 91 93 94 94 90 83 68 51 46 50 48 43 41
59 61 61 62 62 61 62 63 65 67 64 59 58 58 57 57 57 57 62 63 56 51 52 55 54 51 46 43 41 42 45 48 51 54 56 58 59 61 62 62 62 62 61 61 63 65 68 70 72 72 72 71 70 69 69 69 69 68 68 69 71 72 73 74 75 76 77 79 81 82 85 87 90 92 93 94 92 87 79 63 48 45 50 47 41 39
61 62 60 61 61 60 61 64 65 67 65 60 57 58 57 56 56 57 62 62 52 46 49 53 52 48 44 43 45 46 48 52 55 57 60 61 62 64 64 64 63 62 61 62 64 66 69 71 72 72 71 70 69 68 68 68 68 68 69 69 71 72 73 74 75 76 77 79 81 83 86 88 91 92 93 92 89 83 74 60 47 45 49 48 41 37
62 62 59 59 61 60 61 63 65 66 64 60 58 56 55 56 55 55 59 57 48 45 50 52 50 47 47 48 49 50 52 56 58 61 64 64 65 66 67 65 63 61 61 63 65 67 69 71 71 71 70 69 68 67 67 67 67 68 68 69 70 72 73 74 75 76 77 79 81 84 87 89 91 92 90 89 84 78 70 57 46 45 48 47 42 37
61 60 59 59 60 60 61 63 64 64 61 58 53 51 51 52 51 51 55 52 46 46 48 48 48 49 50 52 53 53 56 59 62 65 66 66 67 68 66 63 61 60 61 64 67 68 70 70 71 70 69 68 67 66 66 66 66 67 68 69 70 72 73 74 75 76 78 80 82 85 87 90 91 89 87 84 79 73 65 54 46 45 47 45 41 36
61 60 60 60 60 60 60 61 62 60 58 54 50 48 48 48 48 50 53 52 50 49 48 48 50 51 51 54 55 57 59 62 65 67 67 68 68 66 63 61 60 60 62 65 67 69 70 70 69 68 67 67 66 65 65 65 66 66 68 69 70 72 73 74 75 77 79 81 83 85 87 89 89 86 82 79 74 67 60 53 47 46 46 44 39 34
60 59 60 59 60 60 58 58 60 59 56 52 49 46 46 48 50 52 54 56 56 56 56 57 57 54 54 57 58 59 62 64 66 66 67 68 66 64 61 59 59 61 63 66 67 69 69 69 68 67 66 65 65 64 64 64 65 66 67 69 70 71 73 74 76 77 79 81 83 85 87 87 85 82 77 73 68 61 56 51 48 47 46 42 36 31
55 56 59 59 59 59 57 56 59 60 55 49 48 49 51 54 56 59 61 62 62 62 63 64 62 60 61 61 61 62 63 63 64 66 66 65 63 61 60 59 59 62 64 65 68 69 68 68 67 66 65 64 64 63 63 64 65 65 67 68 69 71 73 74 76 78 80 82 84 85 85 84 81 77 72 67 62 57 52 49 48 46 45 40 33 28
56 57 59 58 56 56 56 58 59 58 52 48 48 52 56 60 65 69 71 69 67 67 66 65 64 65 64 62 61 62 62 62 65 66 65 63 61 60 59 59 60 62 64 65 68 68 67 67 66 65 64 63 62 63 63 63 64 65 66 67 69 71 73 75 77 78 80 82 83 84 83 80 76 71 66 61 57 52 49 48 47 45 41 37 29 24
56 55 56 55 55 56 57 58 57 53 50 49 52 58 64 70 75 78 77 74 73 72 69 66 66 66 64 61 60 60 61 64 66 66 64 62 60 59 58 59 61 62 64 66 67 67 66 66 64 63 63 61 61 62 62 62 63 64 65 67 69 71 73 74 77 78 80 82 82 82 80 75 69 65 60 56 52 49 46 46 46 42 37 32 26 22
52 53 56 57 57 57 54 53 53 52 52 55 62 70 75 77 78 78 76 75 74 72 69 68 67 65 62 59 58 59 63 65 66 65 64 61 59 58 58 59 60 62 64 66 66 66 65 64 62 62 61 60 60 60 61 62 63 64 65 67 69 71 73 75 77 78 80 81 80 79 75 69 63 59 55 51 49 47 45 45 45 39 32 27 23 20
50 52 57 56 56 57 54 51 53 57 61 67 75 79 78 77 76 75 75 75 73 70 68 68 66 63 60 58 58 60 63 64 64 65 63 60 58 57 57 59 61 63 65 66 65 64 63 62 61 60 59 59 59 59 60 61 62 63 65 67 69 71 73 75 77 78 79 79 77 75 70 64 58 55 51 47 46 45 45 45 43 36 28 23 21 19
50 52 56 56 58 60 57 53 58 66 72 76 78 78 76 76 76 76 76 75 72 69 69 67 64 60 59 59 60 61 61 62 64 64 61 58 57 57 58 60 61 63 65 64 63 62 61 59 59 58 57 57 57 58 59 59 60 62 64 66 68 71 73 75 77 78 78 77 73 69 64 59 55 51 48 44 43 43 43 43 40 32 25 22 19 17
56 58 58 58 62 62 58 58 66 74 76 75 75 76 76 76 77 77 77 74 71 69 68 66 61 59 59 62 63 61 61 63 64 62 60 58 56 57 59 60 62 63 63 62 61 59 58 57 56 56 55 56 56 56 57 58 60 62 64 66 68 71 73 75 76 76 76 73 69 63 58 54 51 49 45 41 40 42 43 42 37 28 21 20 19 16
64 64 62 65 69 68 65 68 74 75 74 74 75 75 76 77 78 78 76 73 71 69 67 65 62 60 60 62 64 64 64 64 64 62 60 57 56 58 59 60 61 62 61 60 58 57 56 55 54 54 54 54 53 54 55 57 59 61 63 66 68 70 72 74 75 74 72 69 63 57 52 50 48 46 42 38 37 39 41 42 40 29 19 17 19 18
70 72 72 73 76 76 76 77 77 76 77 78 77 76 77 79 79 78 76 74 71 69 66 65 63 61 60 62 66 66 64 63 63 61 57 55 56 58 59 59 60 60 59 57 55 54 53 53 52 52 52 51 51 52 54 56 58 60 62 65 68 70 72 73 73 72 68 64 58 52 49 47 46 43 40 36 35 37 39 41 42 35 22 15 17 19
Wind_Direction
305 304 304 304 304 304 304 303 302 303 304 305 306 310 314 315 318 320 318 317 317 316 317 313 311 312 312 311 311 310 310 310 311 311 312 315 315 316 316 316 316 315 315 315 316 317 318 317 317 316 315 313 311 310 308 306 306 306 306 307 308 308 308 308 307 306 304 302 301 300 300 298 296 294 292 292 292 293 293 293 294 294 293 293 292 290
304 302 302 303 303 303 303 302 302 303 304 305 306 309 312 314 316 318 317 316 316 315 315 313 310 312 314 313 313 314 314 315 314 314 315 317 318 318 318 318 318 316 315 316 317 318 319 319 318 316 315 313 311 309 308 307 307 307 307 308 308 308 308 307 306 304 303 302 302 301 300 297 295 293 293 293 294 294 295 295 295 295 295 295 294 293
301 299 301 302 303 303 303 302 301 302 304 305 306 308 310 312 313 315 316 316 316 314 313 313 310 311 314 315 316 317 317 318 316 315 317 318 318 317 317 318 317 314 314 317 319 320 320 319 317 316 315 314 312 310 309 309 309 308 308 308 308 308 308 306 304 303 303 302 302 300 298 296 295 294 295 296 296 297 297 297 298 299 299 299 297 296
299 297 299 300 302 303 303 302 302 303 304 306 306 307 309 310 311 314 315 315 315 314 314 313 309 308 311 314 317 318 317 317 315 314 315 314 313 313 313 314 312 311 314 318 320 320 320 318 316 316 316 315 313 312 312 311 309 308 308 308 308 307 307 305 304 303 303 302 301 299 297 297 297 297 298 299 299 300 300 300 302 302 302 301 300 298
297 295 297 299 301 303 304 303 302 302 304 305 305 306 307 309 310 312 313 314 314 314 315 314 308 305 306 310 316 316 315 314 311 311 312 310 310 311 313 312 310 311 315 318 320 321 319 318 318 318 317 316 315 314 313 311 309 308 308 308 307 307 306 305 304 304 303 302 300 298 297 298 299 301 302 302 301 301 301 302 303 303 303 302 302 301
296 293 295 298 299 302 303 302 302 302 304 304 305 305 306 307 308 310 311 311 311 311 313 316 310 305 305 310 315 316 315 314 311 312 313 311 311 312 313 312 311 313 315 318 321 321 320 320 320 320 318 317 316 314 312 310 309 308 308 308 307 307 306 306 305 303 302 301 300 299 299 299 300 302 303 303 303 302 302 303 304 304 304 303 303 303
295 292 293 295 297 300 301 301 302 302 303 304 305 305 306 307 307 307 308 308 309 309 312 319 313 305 305 312 317 319 317 314 313 315 314 311 312 313 312 311 311 313 316 319 322 321 321 322 322 320 318 317 316 313 311 310 308 308 308 308 308 307 306 305 304 303 302 301 301 301 301 303 304 305 305 306 305 305 306 306 306 306 305 304 305 306
294 291 292 293 295 298 299 300 300 301 303 304 306 305 306 306 305 306 305 305 307 306 311 319 313 305 306 311 317 321 317 314 315 317 315 314 314 313 311 311 312 314 316 320 321 320 321 322 321 319 318 317 314 311 310 309 308 308 309 309 308 307 306 304 303 302 302 302 302 302 303 305 307 308 308 308 308 307 307 307 307 306 305 305 307 309
293 291 292 292 295 297 298 299 300 301 303 304 306 305 305 305 305 305 304 304 306 305 309 317 312 307 305 308 318 320 315 313 315 317 317 317 315 313 313 314 314 315 318 320 320 320 321 321 320 319 317 315 312 310 310 309 309 309 309 309 308 306 305 304 303 302 303 303 303 304 305 307 308 310 310 310 309 309 308 308 307 305 304 305 308 310
291 290 291 291 294 297 298 299 300 301 302 305 306 305 305 305 305 306 305 306 306 304 309 312 310 308 305 308 318 317 312 313 314 315 318 317 315 315 316 316 316 318 320 320 320 321 321 319 319 318 316 313 310 309 309 308 309 309 310 309 307 306 305 304 303 303 304 304 304 305 306 308 309 310 311 310 310 310 309 308 306 305 304 306 309 311
289 289 289 291 294 296 297 298 299 301 302 305 306 306 306 305 306 306 305 306 305 304 309 309 307 307 304 309 318 314 311 313 313 315 318 317 315 316 317 317 317 320 320 320 321 321 320 319 318 317 314 311 309 309 309 309 309 310 310 309 307 305 305 304 304 304 304 304 304 306 307 309 310 311 311 311 311 310 309 308 306 305 306 308 311 312
288 288 289 291 293 295 296 298 299 301 303 305 307 307 306 306 306 306 305 306 304 305 308 307 306 305 304 311 315 311 311 312 313 317 318 316 316 316 317 317 318 320 321 321 321 320 319 318 317 315 312 309 308 308 309 309 310 310 309 308 306 305 304 304 304 304 304 304 305 306 308 310 311 311 312 312 312 311 310 309 307 308 309 310 312 313
287 286 287 290 292 294 296 297 299 301 303 305 307 307 307 307 306 305 306 306 305 306 308 307 306 305 305 310 311 310 312 312 315 318 316 316 317 317 317 318 319 321 321 322 321 319 318 316 315 313 310 308 308 309 310 310 310 310 309 307 305 304 303 303 304 304 304 304 305 307 309 311 311 312 312 313 313 312 311 310 310 311 312 313 313 313
286 285 286 288 290 292 294 296 299 301 303 304 305 305 306 307 306 306 307 307 306 308 308 307 307 305 307 309 310 311 312 312 315 315 314 317 318 317 318 319 320 320 321 321 319 318 316 314 313 311 309 308 309 310 311 310 310 309 308 306 304 303 303 303 304 304 304 304 306 308 310 311 311 312 313 313 313 313 312 312 312 313 314 315 314 314
288 288 288 289 290 291 293 295 298 300 301 302 303 304 305 308 308 307 308 308 308 308 307 307 306 306 308 309 309 311 313 314 315 313 315 318 317 317 319 319 319 320 321 320 318 317 315 313 311 309 308 309 310 311 310 310 309 308 306 305 304 303 302 303 303 303 303 305 307 309 310 311 311 312 312 313 313 313 313 313 314 315 316 316 315 315
289 289 290 291 291 292 293 295 298 299 301 302 304 305 307 308 308 307 308 308 308 307 307 307 306 306 308 308 309 311 315 317 314 313 317 318 316 317 319 319 319 320 320 319 317 315 313 311 310 309 309 310 311 311 310 309 308 307 305 304 303 303 302 302 303 303 303 305 308 310 310 311 311 312 312 313 313 313 313 314 315 316 317 317 316 315
288 289 290 292 292 293 294 295 297 299 301 302 304 306 307 307 307 307 307 307 307 306 306 307 306 306 307 308 309 312 316 317 314 315 318 316 316 318 319 319 319 319 319 317 316 314 312 310 309 309 310 311 311 310 309 308 306 305 304 303 303 303 303 303 302 302 304 306 308 310 310 311 312 312 312 312 313 313 314 314 315 317 317 317 316 313
287 288 289 291 292 293 294 294 297 300 301 301 304 306 306 306 306 306 306 307 306 305 305 306 305 306 308 307 308 312 316 315 314 317 318 315 316 317 317 318 318 317 317 316 314 312 310 309 308 309 310 310 310 309 308 306 305 304 303 303 303 303 303 303 302 303 305 307 309 310 311 312 312 312 312 312 313 313 314 315 316 317 318 317 316 311
287 287 287 289 291 291 292 294 297 299 299 301 304 305 305 305 305 305 305 306 306 305 306 305 303 306 308 304 307 314 315 313 315 318 316 314 315 315 316 316 316 316 315 314 312 311 309 308 308 310 310 310 309 308 306 305 304 303 303 304 304 304 303 303 302 304 306 309 311 311 312 313 313 313 313 313 313 313 315 316 317 318 318 318 315 308
289 288 288 289 289 290 291 294 296 297 298 301 303 304 304 304 304 304 304 305 305 305 305 304 303 306 306 303 307 313 312 312 315 316 314 312 313 314 314 314 314 314 313 311 311 309 308 308 309 310 310 308 308 306 305 304 304 304 304 304 305 304 304 303 304 306 308 310 312 313 313 314 313 313 313 313 313 314 315 317 318 319 318 318 315 305
289 289 288 288 289 290 292 294 295 296 298 300 302 302 302 303 303 304 303 304 305 304 304 304 303 305 305 304 308 310 309 310 314 313 311 310 311 313 313 312 312 312 311 310 309 308 308 309 309 309 308 307 306 304 304 304 304 304 305 305 305 305 303 303 305 308 310 312 313 313 314 314 314 314 313 314 314 315 317 318 319 319 318 318 313 301
289 288 287 287 289 290 291 293 294 295 297 299 300 300 301 302 303 304 303 303 304 303 303 303 303 305 306 306 308 308 307 310 312 310 308 308 310 311 311 311 310 310 309 309 308 307 308 309 309 308 307 306 305 304 304 304 305 305 306 306 306 305 303 304 307 309 311 313 313 314 314 314 314 314 314 314 315 316 318 319 320 319 318 316 311 299
286 285 285 287 288 289 290 292 293 295 297 298 298 299 300 302 303 303 303 303 302 302 302 302 302 304 307 307 306 306 307 310 309 306 305 307 309 310 309 309 308 308 308 308 307 307 307 308 307 307 306 305 304 304 304 305 305 306 306 307 306 304 304 305 308 310 312 313 313 314 314 314 314 314 315 315 316 317 319 320 320 319 318 315 307 297
284 284 285 286 287 288 290 292 293 295 296 296 296 298 299 300 301 301 301 302 301 302 303 302 300 302 307 306 303 304 306 308 306 304 304 306 308 308 308 307 307 307 308 307 306 307 307 307 307 306 305 304 304 304 305 305 306 307 307 307 306 305 305 306 309 311 313 313 313 314 314 314 315 315 315 316 317 319 320 321 320 319 317 313 304 297
283 284 285 286 286 288 290 292 293 294 294 294 295 297 298 299 299 300 301 301 302 305 306 301 299 303 306 302 301 303 305 305 304 302 303 305 307 307 305 305 307 307 307 306 306 307 307 306 306 305 304 304 305 305 305 306 307 307 307 306 305 305 305 307 309 311 312 313 313 313 313 314 315 315 316 317 318 320 321 322 321 319 316 310 301 297
281 282 283 285 286 287 290 291 292 293 292 293 295 296 297 297 298 299 299 300 304 307 304 299 299 303 303 301 301 304 305 305 302 300 302 305 305 304 304 306 307 307 306 306 306 306 306 305 305 305 305 305 305 305 306 307 307 307 307 305 305 305 306 308 310 312 312 312 312 313 313 314 315 316 317 318 319 321 323 323 322 320 315 306 300 297
281 282 282 284 285 287 289 290 290 290 291 292 294 294 295 295 295 296 297 300 305 304 299 300 302 301 302 302 302 305 306 303 299 300 304 305 303 303 305 307 307 307 307 306 306 306 305 304 304 305 305 305 305 306 306 307 307 307 306 305 305 306 307 308 310 311 312 312 312 313 313 314 315 317 318 319 320 322 324 325 324 320 313 303 299 298
281 282 283 284 285 287 289 289 290 290 291 292 292 293 294 293 293 295 297 300 302 296 297 304 304 299 302 304 304 306 305 299 298 303 305 303 302 304 307 308 308 308 307 306 306 305 304 304 304 305 305 305 306 306 307 307 306 306 306 305 305 306 307 309 310 311 311 311 312 312 313 314 315 317 319 319 321 323 325 326 325 320 311 301 298 297
281 282 283 284 285 287 289 289 290 291 291 291 292 292 292 292 294 296 297 298 295 291 296 303 299 297 303 307 305 304 299 297 301 303 301 301 304 307 308 308 309 308 307 307 306 304 304 304 304 305 305 305 306 306 307 306 306 306 306 306 306 307 308 309 310 310 310 311 311 312 313 314 316 318 319 320 322 324 326 327 325 318 308 299 298 296
281 282 284 285 286 288 289 289 290 290 291 292 293 292 292 294 296 296 294 294 292 291 296 299 295 298 307 309 302 298 297 300 302 300 300 304 306 308 309 309 309 308 307 307 305 304 304 304 304 305 305 305 306 306 306 306 306 306 305 306 306 307 308 309 310 310 310 311 312 312 313 314 316 318 319 320 322 325 326 327 324 316 305 298 298 295
281 284 286 287 287 288 289 290 289 290 291 292 291 294 297 298 296 294 293 293 292 293 296 296 295 301 308 304 298 298 300 300 298 299 304 307 307 309 310 309 308 308 307 307 305 304 304 304 304 304 304 305 305 306 306 305 305 305 306 306 307 307 308 309 309 310 310 311 312 312 314 315 317 318 319 321 323 325 327 326 321 313 303 298 299 295
283 286 288 288 287 289 291 290 288 290 291 289 290 296 299 296 294 293 293 293 294 294 295 294 297 303 306 300 299 300 298 295 298 303 306 307 308 310 309 308 308 308 307 306 305 303 303 303 303 304 304 304 305 305 305 305 305 306 306 306 306 307 308 309 310 310 311 312 312 313 314 315 317 318 319 321 323 325 326 325 319 309 301 299 300 295
283 286 288 288 288 290 291 289 289 289 288 289 294 298 296 294 294 293 293 294 295 294 294 296 300 304 304 300 300 298 294 296 302 305 307 308 309 309 308 308 309 308 307 305 303 303 303 303 303 303 303 304 305 305 305 305 305 306 306 306 306 307 308 309 310 311 312 313 313 314 315 315 317 318 319 321 323 324 326 324 316 306 301 301 300 295
283 284 287 288 288 289 290 290 290 288 289 294 299 297 294 294 294 292 292 296 296 294 294 297 301 303 301 298 298 296 295 299 303 306 309 310 309 309 309 310 309 307 306 304 303 303 303 302 302 302 303 304 304 305 304 305 305 306 306 306 307 308 309 310 312 312 313 313 314 314 315 316 318 319 320 322 323 324 325 323 314 304 303 303 301 294
283 284 285 286 286 288 290 290 288 288 293 299 299 296 295 295 292 290 293 297 296 294 294 297 300 300 296 294 295 293 293 298 302 306 310 311 310 310 311 311 308 306 305 304 304 304 303 302 302 302 303 304 304 304 305 305 306 306 306 307 308 309 310 311 312 313 313 314 314 315 316 317 318 320 321 322 322 323 325 321 312 305 305 305 300 293
282 282 284 285 287 288 289 288 287 290 295 299 298 297 295 293 292 291 293 297 297 294 295 297 298 297 294 292 291 290 293 299 303 307 310 310 310 312 312 310 308 306 305 304 304 304 303 303 303 303 304 304 304 304 305 305 306 306 306 307 308 309 311 312 313 314 314 314 314 315 317 318 319 320 321 322 322 323 324 320 311 307 307 305 299 293
280 281 283 285 286 287 287 286 287 289 293 300 301 296 293 293 293 291 292 298 301 297 296 297 297 296 293 287 285 288 294 299 303 307 310 310 312 314 313 310 308 307 305 304 304 304 303 303 303 303 304 304 304 304 304 305 305 305 306 307 308 310 311 313 314 314 315 315 315 316 318 318 320 320 321 322 322 323 324 319 311 310 310 305 298 291
279 280 282 283 284 284 283 284 286 287 293 301 301 295 293 293 292 291 293 299 304 301 297 297 298 297 290 282 281 285 292 297 302 307 309 310 313 314 313 311 309 306 305 304 304 304 303 303 303 304 304 304 304 304 304 304 304 305 306 308 309 310 312 313 314 314 315 315 315 317 318 319 320 320 321 322 322 322 323 319 312 312 312 306 298 291
280 280 279 279 280 281 281 282 283 286 293 300 299 295 294 293 294 295 297 302 306 302 299 299 299 296 289 284 282 284 289 295 300 305 308 310 313 314 312 310 307 305 305 305 304 303 303 303 303 304 304 303 303 304 304 304 305 306 307 309 310 311 312 313 314 314 315 315 316 317 319 320 320 321 321 321 321 322 322 318 314 314 312 306 298 292
278 277 275 275 278 279 279 280 282 286 294 299 298 296 296 296 298 300 300 305 310 307 305 306 302 297 293 289 286 285 289 294 299 304 308 310 312 312 310 308 306 306 305 304 303 303 303 303 303 304 303 303 303 303 303 304 305 307 308 309 310 311 313 313 314 315 315 316 317 318 320 321 321 321 321 321 321 322 321 318 315 316 313 306 299 293
275 273 273 275 277 277 277 279 281 286 295 299 296 296 299 301 303 303 305 309 310 308 309 310 307 303 300 295 292 290 291 295 299 303 306 309 310 310 307 305 305 306 305 304 303 303 303 303 303 303 303 302 302 303 303 305 306 307 308 309 310 312 313 314 315 316 316 317 318 320 321 322 322 322 321 321 320 321 320 318 318 319 315 307 299 294
273 272 272 273 274 275 276 277 279 286 295 296 294 299 303 303 304 307 309 309 307 305 306 307 307 306 303 301 298 295 294 296 299 302 306 308 309 307 305 305 306 306 305 304 303 303 303 303 303 302 302 302 302 303 304 305 307 307 308 310 311 313 314 315 316 316 317 318 320 321 322 323 322 322 321 320 320 321 319 318 319 321 316 308 300 295
269 269 270 272 274 275 274 274 279 289 294 292 294 301 302 300 303 307 307 307 305 304 303 303 304 304 304 303 300 294 292 296 300 305 308 308 306 304 304 305 306 306 305 304 303 303 302 302 301 301 301 301 302 303 305 306 307 308 309 311 312 313 314 316 317 317 319 320 321 322 323 324 323 322 320 320 320 320 319 318 321 322 317 309 301 295
267 268 272 275 273 271 271 276 284 290 290 289 293 297 298 300 304 305 305 306 306 304 302 302 302 303 305 304 296 290 292 299 305 309 309 306 304 303 303 305 306 306 305 303 302 302 302 301 301 301 301 301 302 304 305 306 307 308 310 312 313 314 315 317 318 319 320 321 322 324 324 325 323 321 320 320 320 320 318 318 321 322 317 309 301 295
269 271 273 271 269 269 273 281 287 287 287 289 294 297 299 301 303 303 304 305 305 304 303 302 302 305 306 300 290 288 295 304 308 309 306 304 302 302 303 305 306 305 303 303 302 301 301 300 300 300 301 302 303 304 305 306 307 309 311 312 314 315 316 318 319 320 322 323 324 325 326 325 323 321 320 320 320 319 319 318 321 322 316 306 298 293
268 269 268 266 267 270 276 284 287 286 288 294 297 299 301 301 301 302 303 303 303 303 302 302 303 306 304 294 287 290 299 305 307 306 305 303 300 300 303 305 304 303 303 303 302 301 300 300 300 300 301 302 303 304 305 306 308 310 312 313 315 317 318 319 320 322 323 324 326 327 327 326 323 321 321 321 319 319 319 318 320 321 315 303 294 289
266 268 268 267 267 271 278 286 288 288 293 298 299 299 300 300 301 302 302 302 302 301 301 303 304 304 299 290 286 292 299 303 305 305 303 300 298 301 304 304 303 303 303 302 301 300 299 299 300 301 301 302 303 304 306 308 310 311 313 315 317 318 320 321 322 324 325 326 327 328 328 326 323 322 322 321 319 319 318 318 320 321 313 300 290 284
268 271 271 271 272 276 282 288 290 293 298 299 298 298 300 300 301 301 301 301 302 301 302 303 301 300 297 289 287 292 298 302 305 305 301 298 298 301 302 302 303 303 303 301 300 299 299 299 300 301 301 302 303 305 307 308 310 312 314 316 318 319 321 323 324 326 327 328 329 329 328 325 323 323 323 321 319 319 318 316 320 322 312 296 286 280
271 272 275 278 281 284 287 291 296 298 299 298 298 299 299 299 299 299 299 300 301 302 302 299 297 298 298 291 288 292 298 302 303 302 298 297 299 300 301 302 303 303 302 300 299 298 299 299 300 301 301 302 304 305 307 309 311 313 316 317 319 321 323 325 326 328 329 330 330 329 328 325 323 323 323 321 320 321 321 318 319 322 313 296 283 272
271 273 277 281 283 286 290 295 298 298 297 298 299 298 297 297 297 298 299 300 301 300 298 296 295 297 298 293 289 291 295 299 300 299 297 297 298 299 301 302 303 302 301 299 298 298 299 299 300 301 301 303 304 306 307 310 312 315 317 319 321 323 325 327 328 329 330 330 330 329 326 324 323 323 323 321 320 323 325 324 323 323 315 295 282 272
270 274 278 280 283 288 293 296 297 297 298 300 298 295 295 295 295 297 299 300 299 297 295 295 295 296 297 294 290 289 292 296 297 297 296 295 297 299 300 302 303 301 299 298 298 298 299 299 300 301 301 303 304 306 309 311 314 316 319 321 323 325 327 328 330 331 331 331 329 327 325 323 323 324 323 321 321 322 325 327 327 326 318 292 277 275
Height
5837 5835 5833 5831 5829 5827 5825 5823 5821 5819 5818 5816 5814 5812 5810 5806 5805 5803 5799 5796 5794 5792 5792 5788 5784 5784 5783 5781 5779 5777 5776 5773 5771 5768 5767 5765 5762 5760 5758 5756 5753 5751 5748 5745 5743 5741 5739 5735 5731 5727 5724 5720 5717 5713 5710 5706 5703 5699 5696 5693 5689 5685 5681 5678 5674 5671 5667 5664 5661 5658 5654 5650 5644 5638 5634 5628 5623 5619 5615 5609 5606 5603 5600 5598 5595 5591
5833 5831 5829 5827 5825 5823 5821 5819 5817 5815 5814 5812 5809 5807 5806 5802 5800 5799 5795 5791 5789 5787 5786 5783 5779 5779 5779 5776 5774 5772 5769 5767 5765 5762 5761 5759 5757 5754 5752 5750 5747 5745 5741 5739 5738 5736 5732 5728 5724 5720 5717 5713 5710 5706 5702 5698 5694 5690 5687 5683 5680 5676 5672 5668 5665 5661 5658 5654 5650 5647 5643 5637 5632 5625 5621 5618 5614 5610 5605 5598 5594 5591 5588 5585 5582 5578
5830 5827 5825 5824 5821 5820 5817 5815 5812 5811 5809 5808 5805 5802 5801 5799 5795 5795 5792 5787 5785 5782 5781 5779 5774 5772 5773 5771 5769 5767 5764 5762 5759 5757 5756 5754 5751 5749 5747 5745 5742 5738 5735 5733 5731 5728 5724 5721 5717 5713 5710 5707 5703 5699 5694 5690 5686 5682 5678 5674 5671 5667 5663 5659 5655 5652 5648 5645 5640 5634 5629 5623 5619 5616 5611 5607 5603 5598 5593 5587 5581 5577 5574 5572 5568 5564
5826 5823 5821 5820 5818 5816 5814 5810 5807 5806 5805 5803 5800 5798 5797 5795 5791 5789 5787 5783 5781 5777 5775 5773 5768 5766 5768 5767 5766 5763 5760 5758 5755 5753 5752 5749 5747 5745 5742 5740 5736 5732 5729 5727 5724 5721 5718 5714 5710 5707 5704 5700 5696 5691 5686 5681 5677 5673 5669 5666 5662 5658 5654 5650 5646 5643 5639 5635 5630 5622 5615 5609 5605 5604 5602 5599 5593 5587 5581 5576 5570 5564 5559 5557 5554 5550
5822 5818 5816 5815 5814 5812 5809 5806 5803 5800 5800 5799 5797 5794 5792 5791 5787 5784 5781 5777 5775 5773 5771 5768 5762 5758 5762 5764 5764 5761 5758 5755 5752 5749 5748 5745 5742 5739 5736 5733 5729 5726 5723 5720 5718 5714 5711 5707 5703 5700 5696 5692 5687 5682 5678 5674 5669 5665 5661 5657 5653 5649 5645 5641 5637 5633 5629 5624 5619 5612 5605 5600 5595 5592 5590 5588 5586 5580 5573 5567 5562 5556 5548 5542 5539 5536
5819 5815 5812 5811 5809 5807 5805 5802 5799 5796 5795 5795 5793 5790 5787 5786 5783 5780 5777 5772 5769 5767 5767 5766 5757 5749 5752 5759 5760 5757 5754 5750 5747 5745 5742 5738 5735 5732 5730 5726 5722 5719 5716 5714 5711 5707 5703 5699 5695 5691 5688 5683 5679 5674 5670 5666 5661 5657 5653 5649 5645 5641 5636 5632 5628 5623 5618 5612 5605 5599 5595 5592 5589 5587 5583 5577 5573 5568 5564 5559 5553 5547 5540 5532 5526 5522
5814 5810 5809 5806 5804 5803 5800 5798 5795 5792 5789 5789 5788 5786 5783 5781 5778 5776 5773 5769 5765 5761 5761 5763 5754 5742 5741 5751 5755 5752 5748 5744 5741 5739 5736 5731 5728 5726 5723 5719 5716 5713 5710 5707 5704 5700 5695 5691 5687 5683 5679 5675 5671 5667 5662 5658 5654 5649 5645 5641 5636 5632 5627 5622 5617 5612 5606 5600 5593 5586 5582 5579 5577 5576 5575 5569 5560 5552 5547 5545 5540 5534 5528 5521 5515 5511
5808 5805 5804 5801 5800 5799 5796 5793 5790 5787 5785 5784 5783 5780 5778 5776 5773 5771 5768 5765 5761 5755 5757 5759 5751 5738 5734 5741 5749 5746 5741 5738 5736 5734 5729 5725 5722 5719 5717 5713 5710 5706 5703 5700 5696 5692 5687 5683 5679 5675 5671 5667 5662 5658 5654 5650 5646 5642 5637 5633 5628 5624 5619 5613 5607 5601 5594 5589 5583 5577 5572 5569 5564 5562 5561 5557 5550 5542 5535 5531 5527 5521 5516 5509 5503 5497
5802 5800 5798 5796 5795 5793 5790 5788 5785 5783 5780 5779 5778 5775 5773 5770 5768 5766 5763 5760 5757 5749 5751 5754 5746 5735 5730 5735 5743 5740 5735 5733 5731 5727 5723 5719 5716 5713 5710 5706 5703 5699 5696 5693 5688 5684 5680 5675 5672 5667 5663 5659 5655 5651 5647 5642 5638 5633 5629 5624 5619 5615 5609 5603 5596 5590 5584 5578 5573 5568 5564 5561 5556 5551 5547 5543 5537 5531 5525 5520 5515 5509 5503 5498 5492 5485
5796 5795 5793 5791 5790 5788 5785 5782 5780 5777 5775 5774 5773 5770 5767 5764 5762 5760 5756 5755 5751 5744 5746 5747 5740 5732 5724 5729 5737 5733 5729 5727 5724 5721 5716 5713 5709 5705 5702 5698 5695 5692 5688 5684 5680 5675 5672 5668 5664 5660 5656 5651 5647 5643 5639 5634 5630 5625 5621 5616 5610 5605 5599 5592 5586 5580 5574 5568 5563 5559 5555 5552 5549 5544 5539 5533 5526 5519 5514 5510 5505 5498 5491 5486 5481 5474
5791 5789 5788 5786 5785 5782 5780 5777 5774 5772 5769 5768 5767 5764 5761 5758 5756 5754 5751 5749 5744 5740 5742 5739 5734 5728 5719 5723 5730 5725 5723 5722 5717 5714 5709 5705 5701 5697 5694 5691 5687 5684 5680 5676 5672 5667 5663 5660 5656 5652 5648 5644 5640 5636 5632 5627 5623 5618 5613 5608 5602 5595 5589 5583 5577 5571 5565 5559 5554 5550 5546 5542 5539 5535 5530 5524 5517 5509 5503 5499 5494 5488 5481 5474 5468 5462
5786 5784 5782 5781 5780 5777 5774 5772 5769 5766 5763 5762 5760 5757 5754 5751 5749 5747 5745 5744 5738 5735 5736 5731 5727 5722 5713 5716 5720 5716 5715 5714 5709 5706 5701 5696 5693 5690 5687 5683 5680 5677 5673 5669 5664 5660 5656 5652 5649 5645 5641 5637 5633 5629 5625 5620 5615 5610 5605 5600 5593 5586 5580 5575 5569 5563 5558 5552 5547 5542 5537 5533 5528 5524 5518 5513 5507 5499 5492 5487 5482 5477 5470 5463 5455 5449
5781 5780 5778 5776 5774 5772 5769 5766 5763 5760 5758 5756 5754 5751 5747 5744 5742 5739 5738 5736 5731 5729 5728 5722 5718 5715 5709 5710 5710 5707 5707 5705 5701 5698 5693 5689 5686 5683 5679 5676 5673 5669 5665 5661 5657 5653 5649 5646 5642 5639 5634 5630 5626 5621 5617 5612 5607 5602 5596 5591 5585 5579 5573 5568 5562 5557 5551 5545 5540 5534 5529 5524 5519 5514 5508 5502 5496 5489 5482 5475 5469 5464 5458 5451 5443 5435
5775 5774 5774 5772 5770 5767 5764 5761 5758 5755 5753 5751 5749 5746 5743 5740 5736 5733 5731 5727 5723 5723 5720 5714 5709 5705 5704 5703 5701 5700 5699 5697 5695 5690 5686 5683 5679 5675 5672 5668 5665 5662 5658 5654 5650 5646 5643 5639 5635 5631 5627 5623 5618 5614 5610 5605 5600 5594 5589 5583 5578 5572 5566 5560 5555 5550 5544 5538 5532 5526 5521 5516 5511 5505 5499 5492 5485 5478 5472 5465 5458 5451 5444 5437 5429 5421
5766 5765 5767 5766 5764 5762 5759 5756 5753 5750 5748 5746 5744 5741 5738 5736 5729 5725 5723 5719 5715 5714 5713 5710 5702 5698 5696 5693 5693 5694 5693 5690 5687 5682 5678 5676 5672 5668 5665 5662 5658 5655 5651 5647 5643 5639 5635 5632 5629 5624 5620 5616 5611 5607 5603 5598 5592 5586 5581 5575 5570 5565 5560 5554 5548 5543 5537 5531 5525 5519 5513 5508 5502 5496 5490 5483 5475 5468 5462 5455 5448 5441 5433 5424 5415 5408
5759 5757 5759 5758 5757 5755 5752 5750 5747 5744 5741 5738 5736 5733 5731 5729 5723 5717 5715 5712 5708 5704 5705 5704 5697 5693 5691 5685 5684 5687 5686 5683 5678 5673 5671 5668 5664 5661 5658 5655 5651 5647 5644 5640 5636 5632 5628 5625 5621 5617 5613 5609 5604 5600 5595 5589 5584 5578 5573 5567 5562 5557 5552 5547 5541 5536 5531 5525 5519 5512 5506 5500 5494 5487 5481 5475 5468 5460 5452 5445 5438 5431 5422 5412 5402 5396
5754 5751 5751 5750 5748 5747 5745 5743 5740 5738 5735 5731 5729 5728 5725 5722 5717 5711 5707 5705 5700 5694 5696 5698 5690 5688 5687 5680 5677 5679 5677 5675 5669 5665 5664 5659 5655 5653 5650 5647 5643 5639 5636 5632 5628 5624 5621 5617 5613 5609 5605 5601 5596 5591 5586 5580 5575 5570 5565 5559 5554 5549 5544 5538 5533 5528 5523 5518 5512 5506 5499 5492 5485 5479 5472 5466 5460 5452 5445 5437 5428 5420 5412 5402 5391 5385
5748 5745 5744 5742 5740 5739 5737 5735 5733 5732 5728 5724 5724 5722 5718 5714 5711 5705 5699 5698 5693 5684 5685 5690 5684 5681 5679 5673 5671 5672 5669 5665 5660 5658 5656 5651 5647 5645 5642 5639 5635 5632 5628 5624 5620 5616 5613 5609 5605 5601 5597 5592 5587 5583 5578 5572 5567 5561 5556 5551 5546 5541 5536 5530 5525 5520 5514 5509 5505 5499 5492 5485 5477 5470 5463 5457 5450 5444 5436 5428 5419 5411 5401 5392 5382 5374
5742 5739 5738 5737 5734 5732 5730 5728 5727 5724 5720 5718 5718 5716 5712 5708 5704 5699 5692 5689 5685 5675 5673 5677 5678 5677 5672 5665 5664 5666 5661 5655 5652 5651 5648 5643 5641 5638 5635 5632 5627 5624 5620 5616 5613 5609 5606 5602 5598 5594 5589 5584 5579 5574 5569 5564 5558 5553 5547 5542 5537 5531 5527 5522 5517 5512 5506 5499 5494 5489 5482 5476 5469 5462 5454 5448 5441 5435 5428 5418 5409 5400 5390 5381 5372 5365
5734 5732 5730 5729 5727 5725 5723 5722 5720 5716 5713 5712 5711 5708 5706 5702 5698 5693 5686 5681 5678 5670 5663 5661 5666 5671 5666 5658 5659 5659 5653 5648 5646 5644 5639 5635 5634 5631 5627 5624 5620 5617 5613 5609 5606 5602 5599 5595 5591 5587 5581 5576 5572 5566 5561 5556 5550 5545 5539 5533 5528 5522 5517 5512 5507 5503 5498 5491 5485 5479 5473 5467 5460 5453 5446 5439 5432 5425 5419 5410 5400 5390 5380 5370 5363 5356
5725 5723 5722 5720 5718 5717 5716 5715 5712 5709 5707 5706 5704 5701 5698 5695 5691 5685 5680 5676 5671 5665 5658 5649 5650 5658 5657 5652 5654 5651 5645 5643 5641 5637 5633 5629 5626 5624 5621 5617 5614 5611 5607 5603 5599 5595 5592 5588 5583 5579 5574 5569 5565 5559 5553 5548 5542 5537 5531 5525 5520 5514 5509 5504 5499 5493 5488 5483 5477 5471 5465 5459 5453 5446 5438 5430 5423 5416 5409 5401 5390 5379 5369 5360 5353 5348
5717 5714 5713 5712 5710 5709 5708 5707 5704 5702 5702 5699 5697 5695 5691 5688 5684 5676 5671 5669 5664 5658 5654 5646 5639 5643 5646 5645 5645 5642 5637 5637 5636 5630 5625 5623 5620 5617 5614 5610 5607 5604 5600 5596 5593 5589 5585 5582 5577 5573 5568 5563 5557 5551 5546 5540 5534 5529 5523 5517 5511 5506 5501 5496 5491 5485 5479 5474 5468 5462 5456 5451 5445 5438 5431 5423 5416 5408 5401 5392 5381 5370 5360 5351 5345 5341
5709 5705 5704 5704 5702 5701 5700 5699 5696 5695 5695 5692 5689 5687 5684 5681 5677 5670 5662 5658 5656 5650 5646 5642 5633 5631 5636 5637 5634 5631 5629 5630 5628 5623 5618 5616 5614 5611 5607 5604 5600 5597 5594 5590 5587 5584 5580 5576 5572 5567 5562 5556 5550 5544 5538 5533 5527 5521 5515 5509 5503 5498 5493 5488 5483 5477 5471 5465 5459 5453 5447 5442 5436 5429 5422 5414 5407 5401 5393 5384 5373 5361 5351 5343 5337 5334
5699 5697 5696 5695 5694 5693 5693 5692 5690 5689 5687 5684 5681 5680 5677 5674 5669 5663 5656 5650 5647 5644 5640 5634 5623 5621 5629 5630 5624 5622 5623 5623 5619 5615 5612 5610 5608 5605 5600 5597 5594 5591 5588 5585 5581 5578 5574 5570 5565 5560 5555 5549 5542 5537 5531 5525 5520 5513 5507 5501 5496 5491 5485 5480 5475 5469 5463 5457 5451 5445 5438 5433 5428 5421 5413 5406 5399 5392 5384 5375 5364 5352 5342 5335 5330 5326
5691 5690 5688 5685 5684 5685 5685 5684 5683 5682 5678 5675 5674 5673 5670 5667 5661 5654 5649 5642 5637 5638 5636 5623 5612 5617 5624 5620 5616 5615 5615 5616 5612 5606 5605 5603 5601 5599 5594 5591 5589 5585 5582 5579 5575 5572 5567 5562 5557 5552 5546 5541 5535 5530 5524 5518 5512 5506 5499 5494 5489 5484 5478 5472 5466 5461 5455 5450 5444 5438 5431 5424 5419 5412 5405 5397 5390 5383 5375 5365 5354 5343 5333 5327 5323 5319
5683 5683 5681 5677 5675 5676 5677 5677 5676 5673 5668 5666 5667 5666 5662 5659 5653 5645 5641 5636 5632 5631 5629 5617 5607 5613 5619 5612 5608 5610 5608 5606 5604 5599 5598 5597 5593 5591 5588 5585 5583 5579 5576 5573 5569 5564 5560 5554 5550 5544 5539 5534 5528 5523 5517 5510 5505 5499 5492 5486 5481 5477 5471 5465 5459 5453 5447 5441 5435 5429 5423 5416 5410 5404 5396 5388 5381 5374 5366 5356 5345 5335 5326 5320 5316 5313
5673 5674 5675 5671 5667 5667 5669 5670 5669 5665 5662 5661 5660 5658 5655 5651 5645 5639 5634 5632 5629 5620 5617 5616 5608 5606 5611 5607 5601 5603 5602 5595 5592 5590 5590 5589 5585 5583 5580 5578 5575 5572 5569 5566 5561 5557 5552 5547 5542 5537 5532 5527 5521 5515 5509 5503 5498 5492 5486 5480 5474 5469 5464 5458 5452 5446 5439 5433 5427 5421 5414 5408 5401 5395 5387 5379 5372 5364 5356 5347 5336 5326 5319 5314 5310 5306
5663 5664 5667 5664 5659 5660 5661 5660 5659 5657 5655 5655 5654 5651 5647 5642 5637 5634 5628 5627 5625 5609 5603 5615 5610 5597 5602 5604 5595 5594 5593 5585 5582 5582 5581 5580 5578 5576 5574 5571 5569 5566 5562 5558 5554 5549 5544 5539 5535 5530 5524 5519 5513 5507 5502 5496 5490 5485 5479 5473 5468 5462 5456 5451 5445 5440 5433 5426 5420 5413 5407 5400 5393 5387 5379 5371 5364 5356 5347 5338 5328 5318 5312 5308 5304 5300
5654 5655 5660 5656 5650 5653 5654 5651 5649 5647 5645 5646 5647 5643 5638 5633 5630 5628 5622 5620 5617 5603 5596 5607 5605 5594 5597 5598 5590 5585 5581 5577 5576 5576 5574 5573 5572 5569 5567 5565 5561 5558 5555 5551 5546 5541 5537 5532 5528 5522 5516 5511 5505 5500 5494 5488 5483 5477 5472 5466 5461 5454 5449 5444 5438 5432 5426 5419 5412 5406 5399 5392 5385 5379 5371 5363 5355 5347 5338 5329 5320 5311 5305 5301 5298 5294
5647 5647 5653 5648 5643 5646 5647 5643 5641 5638 5635 5637 5638 5635 5630 5627 5624 5618 5614 5613 5608 5597 5594 5596 5592 5592 5597 5592 5582 5577 5573 5570 5570 5569 5568 5567 5565 5562 5561 5557 5554 5550 5546 5542 5538 5534 5530 5525 5519 5514 5508 5503 5498 5493 5487 5481 5476 5471 5465 5460 5454 5448 5442 5437 5431 5424 5418 5412 5405 5398 5391 5384 5377 5370 5363 5355 5347 5338 5329 5320 5311 5304 5298 5295 5291 5287
5639 5640 5644 5639 5632 5636 5640 5636 5632 5630 5627 5626 5627 5627 5624 5622 5616 5609 5606 5606 5600 5592 5591 5587 5580 5586 5593 5585 5574 5572 5569 5565 5564 5563 5562 5560 5557 5555 5553 5549 5546 5543 5538 5535 5530 5526 5521 5516 5511 5506 5501 5495 5490 5485 5480 5474 5468 5464 5459 5453 5448 5442 5436 5430 5424 5418 5411 5404 5398 5391 5384 5377 5370 5362 5354 5346 5338 5330 5320 5311 5302 5296 5291 5288 5285 5281
5632 5631 5634 5630 5621 5624 5630 5627 5623 5622 5618 5614 5618 5621 5618 5612 5607 5602 5600 5599 5593 5586 5583 5579 5575 5578 5581 5575 5569 5567 5564 5561 5559 5558 5556 5553 5550 5548 5545 5542 5539 5535 5531 5527 5522 5517 5513 5509 5504 5499 5493 5488 5483 5478 5472 5467 5461 5456 5452 5447 5441 5436 5430 5424 5417 5411 5404 5397 5390 5383 5376 5368 5362 5355 5347 5339 5330 5321 5312 5303 5294 5288 5284 5281 5278 5274
5626 5623 5623 5620 5612 5612 5619 5617 5614 5613 5607 5605 5612 5614 5608 5603 5599 5596 5594 5594 5589 5580 5574 5571 5571 5571 5568 5564 5563 5561 5558 5556 5555 5552 5549 5546 5543 5541 5538 5535 5531 5527 5523 5518 5513 5510 5505 5501 5496 5491 5486 5481 5475 5470 5465 5460 5455 5449 5445 5441 5435 5429 5424 5417 5410 5403 5397 5389 5382 5375 5368 5360 5353 5347 5339 5331 5322 5313 5303 5295 5287 5280 5277 5275 5271 5267
5619 5615 5613 5611 5605 5603 5608 5607 5603 5601 5598 5600 5605 5604 5598 5596 5592 5587 5587 5589 5584 5574 5567 5564 5566 5565 5559 5556 5555 5554 5552 5551 5548 5546 5543 5539 5536 5533 5530 5527 5523 5518 5514 5510 5506 5502 5498 5493 5489 5484 5479 5474 5468 5463 5457 5452 5447 5442 5438 5433 5428 5421 5416 5410 5403 5396 5389 5382 5374 5367 5359 5352 5344 5337 5330 5322 5313 5304 5295 5286 5279 5274 5270 5267 5264 5260
5610 5608 5604 5602 5598 5595 5598 5598 5589 5587 5593 5596 5594 5593 5592 5588 5582 5577 5578 5582 5578 5568 5560 5558 5558 5557 5552 5549 5549 5548 5546 5544 5542 5539 5536 5532 5529 5526 5522 5519 5515 5511 5506 5502 5499 5495 5490 5486 5481 5476 5472 5467 5461 5455 5450 5444 5440 5435 5430 5425 5420 5413 5407 5402 5396 5389 5381 5374 5366 5358 5351 5344 5336 5329 5321 5314 5304 5296 5287 5279 5272 5267 5263 5260 5257 5253
5602 5600 5596 5593 5591 5587 5587 5586 5577 5576 5586 5591 5586 5585 5584 5578 5572 5568 5568 5574 5574 5563 5554 5552 5551 5550 5547 5544 5543 5542 5539 5538 5536 5533 5529 5525 5522 5519 5515 5511 5507 5503 5499 5495 5492 5488 5483 5478 5473 5468 5464 5459 5454 5449 5443 5438 5433 5428 5423 5418 5412 5406 5400 5394 5388 5381 5374 5366 5358 5350 5343 5335 5328 5320 5313 5305 5296 5287 5280 5271 5265 5261 5256 5253 5250 5246
5594 5591 5589 5585 5582 5580 5576 5573 5568 5566 5574 5584 5583 5579 5575 5569 5565 5558 5554 5564 5569 5559 5549 5546 5544 5543 5542 5539 5537 5535 5532 5530 5529 5525 5521 5518 5515 5512 5508 5504 5500 5496 5492 5488 5484 5480 5475 5470 5466 5461 5456 5452 5447 5442 5437 5432 5427 5423 5418 5412 5405 5399 5393 5387 5380 5374 5366 5358 5349 5342 5335 5326 5319 5312 5304 5296 5287 5279 5272 5264 5258 5255 5250 5245 5243 5240
5584 5583 5583 5577 5572 5573 5568 5563 5560 5556 5562 5575 5577 5571 5565 5561 5557 5550 5545 5554 5562 5553 5543 5541 5538 5537 5536 5533 5530 5528 5525 5523 5521 5517 5513 5510 5508 5505 5500 5497 5492 5488 5485 5481 5477 5473 5467 5462 5458 5454 5449 5444 5439 5435 5431 5426 5421 5416 5411 5405 5398 5392 5386 5380 5373 5366 5359 5351 5342 5335 5327 5319 5310 5302 5295 5286 5277 5270 5263 5257 5252 5248 5244 5239 5236 5234
5574 5573 5575 5569 5563 5565 5561 5555 5552 5550 5555 5565 5565 5560 5556 5552 5549 5544 5538 5544 5550 5544 5537 5536 5534 5532 5530 5526 5524 5521 5517 5515 5513 5508 5505 5503 5500 5497 5493 5489 5484 5480 5477 5473 5469 5464 5459 5455 5450 5446 5442 5437 5432 5428 5423 5419 5414 5409 5403 5397 5391 5385 5379 5373 5366 5359 5352 5344 5336 5328 5320 5311 5302 5294 5285 5277 5269 5261 5255 5250 5246 5242 5238 5233 5229 5227
5566 5564 5563 5560 5557 5557 5553 5547 5545 5545 5552 5558 5554 5550 5548 5544 5542 5538 5532 5534 5538 5535 5533 5531 5528 5526 5523 5519 5517 5515 5511 5508 5505 5500 5496 5494 5491 5488 5484 5480 5476 5473 5469 5464 5460 5456 5451 5447 5442 5438 5434 5429 5425 5421 5416 5411 5407 5402 5396 5390 5384 5378 5372 5365 5359 5352 5345 5337 5329 5321 5313 5303 5294 5285 5277 5268 5261 5254 5248 5243 5239 5237 5232 5227 5223 5221
5556 5554 5552 5551 5550 5548 5544 5540 5537 5542 5551 5550 5543 5541 5540 5536 5535 5532 5527 5528 5529 5526 5526 5526 5522 5520 5517 5512 5510 5507 5504 5501 5497 5492 5488 5485 5482 5479 5475 5472 5469 5465 5461 5456 5451 5447 5442 5438 5434 5430 5426 5422 5418 5414 5409 5405 5400 5394 5389 5383 5377 5371 5365 5358 5351 5345 5338 5330 5322 5314 5305 5295 5285 5277 5269 5260 5253 5248 5242 5236 5233 5231 5226 5221 5218 5216
5548 5544 5542 5543 5541 5539 5537 5533 5530 5537 5547 5543 5534 5533 5533 5527 5525 5525 5523 5523 5522 5519 5518 5517 5515 5512 5509 5505 5503 5499 5495 5492 5488 5483 5479 5476 5473 5470 5467 5464 5461 5457 5453 5449 5443 5439 5435 5431 5427 5423 5419 5415 5411 5407 5403 5398 5392 5387 5381 5376 5370 5363 5357 5351 5345 5338 5331 5323 5315 5307 5298 5288 5278 5269 5261 5254 5247 5242 5237 5232 5228 5225 5220 5216 5213 5211
5539 5534 5531 5534 5534 5530 5529 5526 5524 5529 5537 5536 5528 5525 5523 5518 5517 5517 5516 5515 5514 5512 5510 5507 5505 5503 5500 5497 5494 5490 5486 5483 5479 5475 5471 5467 5464 5461 5458 5456 5454 5450 5446 5441 5435 5431 5427 5423 5420 5417 5412 5408 5404 5400 5396 5391 5385 5380 5374 5369 5363 5356 5350 5344 5337 5331 5324 5316 5308 5299 5290 5280 5271 5262 5254 5248 5242 5237 5232 5228 5224 5221 5215 5210 5208 5207
5527 5526 5524 5526 5526 5522 5518 5519 5521 5523 5525 5525 5523 5519 5514 5511 5510 5508 5506 5505 5504 5503 5501 5498 5496 5494 5491 5488 5485 5481 5477 5473 5469 5466 5463 5459 5456 5453 5450 5448 5445 5441 5437 5433 5427 5424 5420 5416 5413 5409 5405 5401 5397 5392 5388 5384 5378 5373 5367 5362 5356 5350 5344 5337 5331 5324 5317 5309 5301 5293 5283 5273 5264 5256 5248 5242 5237 5233 5228 5223 5220 5217 5211 5206 5204 5204
5519 5521 5518 5515 5514 5512 5512 5514 5517 5518 5516 5515 5515 5512 5506 5503 5501 5499 5497 5496 5494 5492 5492 5490 5486 5484 5482 5479 5476 5472 5468 5464 5461 5458 5455 5451 5448 5445 5443 5440 5437 5433 5429 5424 5420 5416 5413 5409 5405 5402 5399 5395 5391 5386 5381 5376 5371 5366 5361 5355 5350 5344 5338 5332 5324 5317 5310 5302 5294 5286 5277 5267 5258 5250 5243 5237 5232 5228 5224 5219 5216 5213 5208 5203 5201 5201
5512 5511 5507 5505 5504 5504 5508 5511 5510 5509 5508 5507 5505 5502 5498 5494 5491 5489 5488 5487 5485 5483 5482 5480 5478 5476 5473 5470 5466 5463 5458 5456 5453 5449 5446 5443 5440 5438 5435 5432 5429 5425 5421 5417 5413 5409 5406 5402 5399 5395 5392 5388 5384 5379 5374 5369 5364 5360 5354 5349 5344 5337 5331 5325 5318 5311 5303 5295 5287 5279 5270 5261 5253 5245 5239 5234 5228 5224 5220 5216 5212 5209 5205 5200 5198 5198
5503 5501 5496 5498 5498 5495 5500 5507 5505 5499 5500 5499 5495 5491 5489 5484 5481 5479 5478 5476 5475 5474 5473 5471 5469 5467 5464 5461 5458 5454 5450 5447 5444 5440 5437 5435 5432 5431 5429 5425 5422 5418 5414 5410 5407 5403 5399 5396 5392 5389 5385 5381 5377 5373 5368 5363 5358 5353 5348 5343 5337 5331 5324 5318 5311 5304 5296 5288 5280 5272 5264 5256 5249 5242 5236 5231 5226 5222 5217 5213 5209 5205 5201 5198 5197 5196
5495 5492 5487 5490 5491 5488 5492 5500 5497 5490 5491 5490 5485 5481 5480 5475 5471 5469 5467 5466 5466 5465 5463 5463 5461 5457 5455 5452 5449 5446 5442 5439 5436 5432 5429 5427 5425 5424 5421 5418 5414 5411 5407 5403 5400 5396 5393 5389 5386 5382 5379 5375 5371 5366 5361 5357 5352 5347 5342 5337 5331 5325 5318 5311 5303 5296 5289 5281 5273 5265 5258 5251 5245 5239 5234 5229 5224 5219 5214 5210 5207 5203 5198 5195 5195 5194
5484 5481 5481 5483 5481 5480 5487 5491 5485 5479 5479 5479 5476 5472 5470 5465 5461 5459 5457 5457 5457 5456 5454 5453 5451 5448 5447 5444 5441 5438 5434 5431 5428 5425 5422 5420 5418 5416 5413 5410 5407 5403 5399 5396 5392 5389 5386 5383 5380 5376 5373 5369 5365 5361 5356 5351 5347 5342 5337 5331 5326 5320 5313 5305 5297 5289 5282 5274 5267 5260 5254 5247 5241 5236 5232 5227 5223 5217 5211 5205 5201 5199 5197 5193 5192 5192
5473 5473 5477 5475 5469 5472 5481 5483 5474 5466 5466 5469 5468 5464 5459 5455 5452 5450 5449 5449 5448 5446 5444 5442 5441 5440 5438 5436 5433 5430 5426 5423 5421 5418 5415 5413 5410 5408 5405 5402 5398 5395 5392 5389 5385 5382 5379 5376 5373 5370 5366 5363 5359 5355 5350 5346 5341 5337 5332 5326 5320 5314 5307 5299 5291 5284 5276 5269 5262 5256 5251 5245 5239 5234 5230 5226 5222 5217 5212 5205 5198 5195 5194 5192 5190 5190
5466 5468 5468 5464 5461 5465 5472 5472 5462 5454 5455 5459 5460 5455 5450 5447 5444 5442 5441 5440 5438 5436 5433 5432 5432 5431 5429 5427 5424 5421 5418 5415 5412 5410 5408 5405 5402 5399 5396 5394 5391 5387 5384 5382 5379 5376 5373 5370 5367 5363 5360 5357 5353 5349 5345 5341 5336 5331 5326 5320 5314 5307 5301 5294 5286 5278 5271 5264 5258 5253 5248 5243 5238 5233 5228 5224 5220 5216 5213 5208 5200 5193 5190 5190 5190 5189